FW7087 Weather Reports


Display with metric or nautical units.
time (UTC)temp
F
wind
direction
speed
MPH
gust
MPH
rain 1hr
in
rain 24hr
in
rain mn
in
humidity
%
barometer
mb
20260505164003 79 136 4.0 7.0 0.00 0.00 0.00 81 1009.3
20260505163004 79 68 0.0 8.0 0.00 0.00 0.00 82 1009.5
20260505162003 78 164 2.0 6.0 0.00 0.00 0.00 82 1009.6
20260505161004 78 169 4.0 8.0 0.00 0.00 0.00 83 1009.6
20260505152003 76 129 0.0 8.0 0.00 0.00 0.00 84 1009.2
20260505151003 76 167 0.0 5.0 0.00 0.00 0.00 85 1009.3
20260505125004 72 175 0.0 3.0 0.00 0.00 0.00 89 1009.2
20260505124003 72 175 0.0 5.0 0.00 0.00 0.00 89 1008.8
20260505123004 72 175 5.0 6.0 0.00 0.00 0.00 89 1008.5
20260505122004 72 175 0.0 9.0 0.00 0.00 0.00 89 1008.5
20260505114004 71 2 0.0 3.0 0.00 0.00 0.00 89 1008.5
20260505113005 71 149 5.0 5.0 0.00 0.00 0.00 89 1008.3
20260505111005 71 154 1.0 6.0 0.00 0.00 0.00 89 1008.5
20260505102004 71 2 3.0 5.0 0.00 0.00 0.00 89 1008.4
20260505100004 71 175 0.0 4.0 0.00 0.00 0.00 89 1008.7
20260505095004 71 175 0.0 4.0 0.00 0.00 0.00 89 1008.7
20260505094004 71 45 0.0 4.0 0.00 0.00 0.00 88 1008.6
20260505093004 71 166 0.0 4.0 0.00 0.00 0.00 89 1008.6
20260505092004 71 166 0.0 5.0 0.00 0.00 0.00 88 1008.8
20260505091004 71 166 0.0 6.0 0.00 0.00 0.00 88 1009.0
20260505090004 71 163 0.0 1.0 0.00 0.00 0.00 88 1008.9
20260505083005 71 166 0.0 3.0 0.00 0.00 0.00 87 1009.1
20260505082004 71 166 0.0 5.0 0.00 0.00 0.00 87 1009.3
20260505081004 71 166 0.0 4.0 0.00 0.00 0.00 87 1009.2
20260505080004 71 166 4.0 6.0 0.00 0.00 0.00 86 1009.3
20260505075004 71 168 0.0 0.0 0.00 0.00 0.00 86 1009.4
20260505074004 71 168 0.0 4.0 0.00 0.00 0.00 86 1009.4
20260505073004 71 168 0.0 4.0 0.00 0.00 0.00 86 1009.5
20260505072004 71 168 0.0 0.0 0.00 0.00 0.00 85 1009.6
20260505071003 71 168 0.0 3.0 0.00 0.00 0.00 86 1009.9
20260505070004 71 168 0.0 5.0 0.00 0.00 0.00 85 1010.0
20260505064004 71 168 2.0 5.0 0.00 0.00 0.00 84 1010.0
20260505063004 71 168 5.0 5.0 0.00 0.00 0.00 84 1010.0
20260505062004 71 167 0.0 6.0 0.00 0.00 0.00 84 1010.1
20260505061004 71 167 0.0 8.0 0.00 0.00 0.00 83 1010.3
20260505060004 71 139 0.0 5.0 0.00 0.00 0.00 83 1010.3
20260505055003 71 146 0.0 3.0 0.00 0.00 0.00 83 1010.3
20260505054004 71 23 0.0 10.0 0.00 0.00 0.00 82 1010.2
20260505053004 72 32 0.0 5.0 0.00 0.00 0.00 82 1010.5
20260505052003 72 170 0.0 5.0 0.00 0.00 0.00 82 1010.4
20260505051003 72 196 0.0 5.0 0.00 0.00 0.00 81 1010.7
20260505041003 72 358 0.0 8.0 0.00 0.00 0.00 79 1010.5
20260505040005 73 359 0.0 7.0 0.00 0.00 0.00 78 1010.6
20260505035003 73 164 6.0 9.0 0.00 0.00 0.00 78 1010.7
20260505034003 73 164 0.0 8.0 0.00 0.00 0.00 78 1010.8
20260505033004 73 168 0.0 9.0 0.00 0.00 0.00 77 1010.6
20260505032003 74 158 4.0 8.0 0.00 0.00 0.00 77 1010.8
20260505031003 74 3 0.0 8.0 0.00 0.00 0.00 76 1010.7
20260505030004 74 360 3.0 6.0 0.00 0.00 0.00 75 1010.6
20260505025004 74 64 0.0 5.0 0.00 0.00 0.00 76 1010.6
20260505024003 75 353 0.0 9.0 0.00 0.00 0.00 75 1010.4
20260505023003 75 28 2.0 13.0 0.00 0.00 0.00 75 1010.5
20260505022004 75 164 0.0 6.0 0.00 0.00 0.00 76 1010.3
20260505021003 75 311 0.0 6.0 0.00 0.00 0.00 75 1010.4
20260505020003 75 162 0.0 6.0 0.00 0.00 0.00 75 1010.4
20260505015004 75 160 0.0 8.0 0.00 0.00 0.00 75 1010.2
20260505014003 75 166 0.0 5.0 0.00 0.00 0.00 73 1010.1
20260505012004 76 175 0.0 8.0 0.00 0.00 0.00 71 1009.8
20260505011003 76 158 0.0 6.0 0.00 0.00 0.00 72 1009.8
20260505010005 77 22 0.0 5.0 0.00 0.00 0.00 71 1009.8
20260505005004 77 155 0.0 6.0 0.00 0.00 0.00 71 1010.0
20260505004004 77 155 0.0 8.0 0.00 0.00 0.00 70 1010.1
20260505003004 77 168 0.0 9.0 0.00 0.00 0.00 69 1010.0
20260505002005 78 155 2.0 8.0 0.00 0.00 0.00 69 1010.0
20260505001004 78 120 0.0 9.0 0.00 0.00 0.00 68 1010.0
20260504234004 79 169 6.0 8.0 0.00 0.00 0.00 65 1010.0
20260504232004 80 168 1.0 9.0 0.00 0.00 0.00 63 1010.2
20260504231004 80 85 0.0 8.0 0.00 0.00 0.00 63 1010.3
20260504230004 80 168 0.0 6.0 0.00 0.00 0.00 64 1010.5
20260504225004 80 143 4.0 10.0 0.00 0.00 0.00 62 1010.6
20260504224004 80 359 2.0 10.0 0.00 0.00 0.00 60 1010.5
20260504223004 80 141 0.0 5.0 0.00 0.00 0.00 63 1010.8
20260504222004 80 141 0.0 9.0 0.00 0.00 0.00 60 1010.8
20260504221004 80 141 0.0 6.0 0.00 0.00 0.00 61 1010.8
20260504220004 81 141 0.0 5.0 0.00 0.00 0.00 58 1011.1
20260504214005 81 144 1.0 5.0 0.00 0.00 0.00 60 1011.1
20260504213004 81 148 8.0 10.0 0.00 0.00 0.00 59 1011.4
20260504212004 81 144 0.0 5.0 0.00 0.00 0.00 59 1011.4
20260504211009 81 143 3.0 6.0 0.00 0.00 0.00 59 1011.7
20260504210004 82 135 0.0 10.0 0.00 0.00 0.00 58 1011.9
20260504205004 81 348 1.0 9.0 0.00 0.00 0.00 59 1011.8
20260504204004 81 156 0.0 6.0 0.00 0.00 0.00 60 1012.2
20260504203004 82 317 0.0 7.0 0.00 0.00 0.00 56 1012.4
20260504201004 81 164 0.0 8.0 0.00 0.00 0.00 56 1012.9
20260504200004 82 47 0.0 5.0 0.00 0.00 0.00 56 1012.9
20260504195004 82 175 2.0 5.0 0.00 0.00 0.00 55 1013.1
20260504194004 82 175 2.0 6.0 0.00 0.00 0.00 55 1013.3
20260504193004 82 76 0.0 3.0 0.00 0.00 0.00 56 1013.5
20260504192004 82 163 0.0 6.0 0.00 0.00 0.00 56 1013.6
20260504191005 82 128 1.0 6.0 0.00 0.00 0.00 59 1013.7
20260504190004 82 162 0.0 6.0 0.00 0.00 0.00 56 1013.9
20260504183004 82 161 1.0 5.0 0.00 0.00 0.00 55 1014.2
20260504182004 81 93 1.0 9.0 0.00 0.00 0.00 54 1014.3
20260504181004 81 147 1.0 10.0 0.00 0.00 0.00 56 1014.4
20260504180005 81 133 0.0 9.0 0.00 0.00 0.00 55 1014.5
20260504175005 80 81 0.0 6.0 0.00 0.00 0.00 58 1014.6
20260504174004 80 109 3.0 5.0 0.00 0.00 0.00 60 1014.8
20260504173004 79 162 0.0 10.0 0.00 0.00 0.00 58 1014.9
20260504172004 79 164 6.0 10.0 0.00 0.00 0.00 56 1014.9